Time,TemperatureF,DewpointF,PressureIn,WindDirection,WindDirectionDegrees,WindSpeedMPH,WindSpeedGustMPH,Humidity,HourlyPrecipIn,Conditions,Clouds,dailyrainin,SoftwareType,DateUTC
2013-06-07 00:12:00,54.3,49.9,29.72,West,270,0.0,-999.0,85,-99.99,,,0.00,Acu-Link.com,2013-06-07 07:12:00,
2013-06-07 00:28:00,53.8,49.7,29.72,NNE,22,0.0,-999.0,86,-99.99,,,0.00,Acu-Link.com,2013-06-07 07:28:00,
2013-06-07 00:43:00,53.2,49.4,29.71,North,0,0.0,-999.0,87,-99.99,,,0.00,Acu-Link.com,2013-06-07 07:43:00,
2013-06-07 00:58:00,52.2,49.1,29.71,West,270,0.0,-999.0,89,-99.99,,,0.00,Acu-Link.com,2013-06-07 07:58:00,
2013-06-07 01:13:00,52.2,48.8,29.71,West,270,0.0,-999.0,88,-99.99,,,0.00,Acu-Link.com,2013-06-07 08:13:00,
2013-06-07 01:29:00,51.4,48.9,29.71,NE,45,0.0,-999.0,91,-99.99,,,0.00,Acu-Link.com,2013-06-07 08:29:00,
2013-06-07 01:44:00,51.6,49.4,29.71,ENE,67,0.0,-999.0,92,-99.99,,,0.00,Acu-Link.com,2013-06-07 08:44:00,
2013-06-07 01:59:00,51.4,49.2,29.71,East,90,0.0,-999.0,92,-99.99,,,0.00,Acu-Link.com,2013-06-07 08:59:00,
2013-06-07 02:14:00,51.3,49.1,29.71,NE,45,0.0,-999.0,92,-99.99,,,0.00,Acu-Link.com,2013-06-07 09:14:00,
2013-06-07 02:30:00,51.1,49.1,29.70,NE,45,0.0,-999.0,93,-99.99,,,0.00,Acu-Link.com,2013-06-07 09:30:00,
2013-06-07 02:45:00,50.7,49.0,29.70,ENE,67,0.0,-999.0,94,-99.99,,,0.00,Acu-Link.com,2013-06-07 09:45:00,
2013-06-07 03:00:00,50.5,48.8,29.70,NE,45,0.0,-999.0,94,-99.99,,,0.00,Acu-Link.com,2013-06-07 10:00:00,
2013-06-07 03:15:00,50.5,49.1,29.70,NE,45,0.0,-999.0,95,-99.99,,,0.00,Acu-Link.com,2013-06-07 10:15:00,
2013-06-07 03:31:00,50.4,49.0,29.70,ENE,67,0.0,-999.0,95,-99.99,,,0.00,Acu-Link.com,2013-06-07 10:31:00,
2013-06-07 03:46:00,50.2,48.8,29.70,ENE,67,0.0,-999.0,95,-99.99,,,0.00,Acu-Link.com,2013-06-07 10:46:00,
2013-06-07 04:31:00,49.8,48.7,29.69,NE,45,3.2,-999.0,96,-99.99,,,0.00,Acu-Link.com,2013-06-07 11:31:00,
2013-06-07 04:47:00,49.5,48.4,29.70,NE,45,4.2,-999.0,96,-99.99,,,0.00,Acu-Link.com,2013-06-07 11:47:00,
2013-06-07 05:02:00,49.3,48.5,29.70,ENE,67,3.7,-999.0,97,-99.99,,,0.00,Acu-Link.com,2013-06-07 12:02:00,
2013-06-07 05:17:00,49.3,48.5,29.70,ENE,67,3.7,-999.0,97,-99.99,,,0.00,Acu-Link.com,2013-06-07 12:17:00,
2013-06-07 05:33:00,49.3,48.5,29.71,NE,45,2.2,-999.0,97,-99.99,,,0.00,Acu-Link.com,2013-06-07 12:33:00,
2013-06-07 05:48:00,49.3,48.5,29.71,ENE,67,0.0,-999.0,97,-99.99,,,0.00,Acu-Link.com,2013-06-07 12:48:00,
2013-06-07 06:03:00,49.5,48.7,29.72,ENE,67,0.0,-999.0,97,-99.99,,,0.00,Acu-Link.com,2013-06-07 13:03:00,
2013-06-07 06:18:00,49.8,49.0,29.71,NNE,22,0.0,-999.0,97,-99.99,,,0.00,Acu-Link.com,2013-06-07 13:18:00,
2013-06-07 06:34:00,50.2,49.4,29.71,NE,45,3.2,-999.0,97,-99.99,,,0.00,Acu-Link.com,2013-06-07 13:34:00,
2013-06-07 06:49:00,52.2,50.5,29.71,ENE,67,2.7,-999.0,94,-99.99,,,0.00,Acu-Link.com,2013-06-07 13:49:00,
2013-06-07 07:04:00,54.7,50.9,29.71,ENE,67,2.7,-999.0,87,-99.99,,,0.00,Acu-Link.com,2013-06-07 14:04:00,
2013-06-07 07:19:00,58.3,51.8,29.72,ENE,67,0.0,-999.0,79,-99.99,,,0.00,Acu-Link.com,2013-06-07 14:19:00,
2013-06-07 07:34:00,62.1,53.0,29.71,ENE,67,0.0,-999.0,72,-99.99,,,0.00,Acu-Link.com,2013-06-07 14:34:00,
2013-06-07 07:50:00,65.5,53.4,29.72,ENE,67,0.0,-999.0,65,-99.99,,,0.00,Acu-Link.com,2013-06-07 14:50:00,
2013-06-07 08:05:00,67.3,53.8,29.72,NNE,22,0.0,-999.0,62,-99.99,,,0.00,Acu-Link.com,2013-06-07 15:05:00,
2013-06-07 08:20:00,71.8,54.8,29.72,SSE,157,0.0,-999.0,55,-99.99,,,0.00,Acu-Link.com,2013-06-07 15:20:00,
2013-06-07 08:35:00,76.3,55.1,29.72,NE,45,1.1,-999.0,48,-99.99,,,0.00,Acu-Link.com,2013-06-07 15:35:00,
2013-06-07 08:51:00,78.6,56.1,29.72,West,270,0.0,-999.0,46,-99.99,,,0.00,Acu-Link.com,2013-06-07 15:51:00,
2013-06-07 09:21:00,83.3,57.1,29.72,WNW,292,2.2,-999.0,41,-99.99,,,0.00,Acu-Link.com,2013-06-07 16:21:00,
2013-06-07 09:36:00,84.2,58.6,29.72,North,0,0.0,-999.0,42,-99.99,,,0.00,Acu-Link.com,2013-06-07 16:36:00,
2013-06-07 09:52:00,86.5,57.8,29.72,West,270,1.7,-999.0,38,-99.99,,,0.00,Acu-Link.com,2013-06-07 16:52:00,
2013-06-07 10:07:00,86.2,58.3,29.72,WNW,292,0.0,-999.0,39,-99.99,,,0.00,Acu-Link.com,2013-06-07 17:07:00,
2013-06-07 10:22:00,89.8,60.0,29.72,WSW,247,2.7,-999.0,37,-99.99,,,0.00,Acu-Link.com,2013-06-07 17:22:00,
2013-06-07 10:38:00,91.6,60.0,29.72,WNW,292,3.2,-999.0,35,-99.99,,,0.00,Acu-Link.com,2013-06-07 17:38:00,
2013-06-07 10:53:00,93.7,61.9,29.72,SSW,202,0.0,-999.0,35,-99.99,,,0.00,Acu-Link.com,2013-06-07 17:53:00,
2013-06-07 11:23:00,96.6,60.9,29.72,NW,315,1.7,-999.0,31,-99.99,,,0.00,Acu-Link.com,2013-06-07 18:23:00,
2013-06-07 11:54:00,97.5,61.7,29.71,West,270,3.7,-999.0,31,-99.99,,,0.00,Acu-Link.com,2013-06-07 18:54:00,
2013-06-07 12:09:00,99.9,61.9,29.71,West,270,2.7,-999.0,29,-99.99,,,0.00,Acu-Link.com,2013-06-07 19:09:00,
2013-06-07 12:40:00,99.0,61.1,29.70,West,270,1.7,-999.0,29,-99.99,,,0.00,Acu-Link.com,2013-06-07 19:40:00,
2013-06-07 12:55:00,98.4,60.6,29.70,ESE,112,4.2,-999.0,29,-99.99,,,0.00,Acu-Link.com,2013-06-07 19:55:00,
2013-06-07 13:10:00,98.8,60.0,29.70,West,270,6.8,-999.0,28,-99.99,,,0.00,Acu-Link.com,2013-06-07 20:10:00,
2013-06-07 13:25:00,99.5,60.6,29.69,West,270,5.3,-999.0,28,-99.99,,,0.00,Acu-Link.com,2013-06-07 20:25:00,
2013-06-07 13:40:00,99.3,59.4,29.68,WNW,292,2.7,-999.0,27,-99.99,,,0.00,Acu-Link.com,2013-06-07 20:40:00,
2013-06-07 13:56:00,99.3,58.3,29.68,West,270,10.4,-999.0,26,-99.99,,,0.00,Acu-Link.com,2013-06-07 20:56:00,
2013-06-07 14:11:00,100.2,58.0,29.68,West,270,8.3,-999.0,25,-99.99,,,0.00,Acu-Link.com,2013-06-07 21:11:00,
2013-06-07 14:26:00,101.3,57.7,29.68,West,270,7.8,-999.0,24,-99.99,,,0.00,Acu-Link.com,2013-06-07 21:26:00,
2013-06-07 14:57:00,105.1,57.2,29.66,ENE,67,2.7,-999.0,21,-99.99,,,0.00,Acu-Link.com,2013-06-07 21:57:00,
2013-06-07 18:02:00,97.2,56.5,29.61,SW,225,8.3,-999.0,26,-99.99,,,0.00,Acu-Link.com,2013-06-08 01:02:00,
2013-06-07 18:17:00,97.0,56.4,29.59,West,270,6.3,-999.0,26,-99.99,,,0.00,Acu-Link.com,2013-06-08 01:17:00,
2013-06-07 18:32:00,96.1,55.6,29.59,WNW,292,7.8,-999.0,26,-99.99,,,0.00,Acu-Link.com,2013-06-08 01:32:00,
2013-06-07 18:47:00,95.5,56.1,29.58,West,270,7.3,-999.0,27,-99.99,,,0.00,Acu-Link.com,2013-06-08 01:47:00,
2013-06-07 19:03:00,94.8,55.6,29.58,South,180,7.3,-999.0,27,-99.99,,,0.00,Acu-Link.com,2013-06-08 02:03:00,
2013-06-07 19:18:00,94.3,54.1,29.58,WSW,247,8.3,-999.0,26,-99.99,,,0.00,Acu-Link.com,2013-06-08 02:18:00,
2013-06-07 19:33:00,93.9,54.8,29.58,WSW,247,5.8,-999.0,27,-99.99,,,0.00,Acu-Link.com,2013-06-08 02:33:00,
2013-06-07 19:48:00,92.8,53.9,29.59,WSW,247,4.2,-999.0,27,-99.99,,,0.00,Acu-Link.com,2013-06-08 02:48:00,
2013-06-07 20:04:00,91.4,53.7,29.58,WSW,247,6.8,-999.0,28,-99.99,,,0.00,Acu-Link.com,2013-06-08 03:04:00,
2013-06-07 20:19:00,90.3,53.7,29.58,SSE,157,5.3,-999.0,29,-99.99,,,0.00,Acu-Link.com,2013-06-08 03:19:00,
2013-06-07 20:34:00,89.1,52.7,29.58,WSW,247,3.7,-999.0,29,-99.99,,,0.00,Acu-Link.com,2013-06-08 03:34:00,
2013-06-07 21:04:00,88.7,53.2,29.58,West,270,3.7,-999.0,30,-99.99,,,0.00,Acu-Link.com,2013-06-08 04:04:00,
2013-06-07 21:20:00,87.3,53.8,29.58,WNW,292,3.2,-999.0,32,-99.99,,,0.00,Acu-Link.com,2013-06-08 04:20:00,
2013-06-07 21:35:00,86.5,54.8,29.58,West,270,4.2,-999.0,34,-99.99,,,0.00,Acu-Link.com,2013-06-08 04:35:00,
2013-06-07 21:50:00,86.4,53.9,29.59,WSW,247,0.0,-999.0,33,-99.99,,,0.00,Acu-Link.com,2013-06-08 04:50:00,
2013-06-07 22:05:00,86.0,54.3,29.59,West,270,2.2,-999.0,34,-99.99,,,0.00,Acu-Link.com,2013-06-08 05:05:00,
2013-06-07 22:20:00,84.9,54.9,29.60,ENE,67,2.7,-999.0,36,-99.99,,,0.00,Acu-Link.com,2013-06-08 05:20:00,
2013-06-07 22:36:00,81.5,58.1,29.60,NE,45,2.2,-999.0,45,-99.99,,,0.00,Acu-Link.com,2013-06-08 05:36:00,
2013-06-07 22:51:00,81.0,58.2,29.60,NE,45,2.2,-999.0,46,-99.99,,,0.00,Acu-Link.com,2013-06-08 05:51:00,
2013-06-07 23:06:00,80.4,57.7,29.60,NE,45,3.2,-999.0,46,-99.99,,,0.00,Acu-Link.com,2013-06-08 06:06:00,
2013-06-07 23:21:00,81.0,58.2,29.59,NE,45,3.7,-999.0,46,-99.99,,,0.00,Acu-Link.com,2013-06-08 06:21:00,
2013-06-07 23:36:00,80.6,56.6,29.59,West,270,1.7,-999.0,44,-99.99,,,0.00,Acu-Link.com,2013-06-08 06:36:00,
2013-06-07 23:52:00,80.6,56.0,29.59,West,270,2.2,-999.0,43,-99.99,,,0.00,Acu-Link.com,2013-06-08 06:52:00,